Location: Newark
(44.0692°N, 7.2567°E)
Time: 03:03:12
(UTC+00:00)

Oscar 11 - Visible Passes

Search period start: 17 October 2019 00:00
Search period end: 27 October 2019 00:00
Orbit: 614 x 624 km, 97.6° (Epoch: 16 October)

Date Brightness Start Highest point End Pass type
(mag) Time Alt. Az. Time Alt. Az. Time Alt. Az.
17 Oct 7.0 17:49:30 10° SSE 17:53:49 85° ENE 17:58:12 10° NNW visible
18 Oct 7.5 18:06:39 10° S 18:10:56 63° W 18:15:16 10° NNW visible
19 Oct 8.4 18:24:01 10° SSW 18:28:06 40° W 18:32:14 10° NNW visible
20 Oct 7.9 17:05:27 10° SE 17:09:12 29° ENE 17:12:59 10° N visible
20 Oct 9.2 18:41:37 10° SSW 18:45:18 27° W 18:49:02 10° NW visible
21 Oct 7.4 17:22:06 10° SE 17:26:13 43° ENE 17:30:22 10° N visible
21 Oct 9.8 18:59:32 10° SW 19:02:33 18° W 19:05:35 10° NW visible
22 Oct 7.0 17:38:58 10° SSE 17:43:16 67° ENE 17:47:36 10° N visible
22 Oct 10.3 19:18:08 10° WSW 19:19:51 12° W 19:21:33 10° WNW visible
23 Oct 10.8 05:26:49 10° ENE 05:28:12 11° E 05:29:35 10° ESE visible
23 Oct 7.1 17:56:00 10° S 18:00:20 81° WSW 18:04:44 10° NNW visible
24 Oct 7.9 18:13:15 10° S 18:17:29 52° W 18:21:46 10° NNW visible
25 Oct 8.8 18:30:42 10° SSW 18:34:39 34° W 18:38:39 10° NNW visible
26 Oct 7.7 17:11:45 10° SE 17:15:41 35° ENE 17:19:39 10° N visible
26 Oct 9.5 18:48:25 10° SSW 18:51:53 23° W 18:55:21 10° NW visible
